Shreveport Downtown, LA

8:24 PM CDT on March 27, 2017 (GMT -0500)
Shreveport Downtown

Weather History for KDTN - March, 2014

Change the Weather History Date:

Tuesday, March 11, 2014

  Actual Average (KBAD) Record (KBAD)
Temperature  
Mean Temperature 65 °F -  
Max Temperature 75 °F 62 °F 87 °F (2006)
Min Temperature 55 °F 44 °F 26 °F (1998)
Growing Degree Days 15 (Base 50)    
Moisture  
Dew Point 55 °F    
Average Humidity 73    
Maximum Humidity 90    
Minimum Humidity 53    
Precipitation  
Precipitation 0.00 in - - ()
Sea Level Pressure  
Sea Level Pressure 29.72 in    
Wind  
Wind Speed 8 mph (South)    
Max Wind Speed 12 mph    
Max Gust Speed -    
Visibility 10 miles    
Events      
Averages and records for this station are not official NWS values.
T = Trace of Precipitation, MM = Missing Value Source: NWS Daily Summary

Daily Weather History Graph

Daily Weather History Graph

Search for Another Location

Airport or City:

Trip Planner

Search our weather history database for the weather conditions in past years. The results will help you decide how hot, cold, wet, or windy it might be!

Date:

Astronomy

Mar. 11, 2014 Rise Set
Actual Time 7:30 AM CDT 7:20 PM CDT
Civil Twilight 7:05 AM CDT 7:44 PM CDT
Nautical Twilight 6:37 AM CDT 8:13 PM CDT
Astronomical Twilight 6:08 AM CDT 8:41 PM CDT
Moon 3:08 PM CDT (3/11) 4:12 AM CDT (3/11)
Length of Visible Light 12h 38m
Length of Day
11h 49m
Waxing Gibbous, 78% of the Moon is Illuminated
Mar 11
Waxing Gibbous
Mar 16
Full
Mar 23
Last Quarter
Mar 30
New
Apr 7
First Quarter

Hourly Weather History & Observations

Time (CDT) Temp. Dew Point Humidity Pressure Visibility Wind Dir Wind Speed Gust Speed Precip Events Conditions
12:53 AM 61.0 °F 54.0 °F 78% 29.88 in 10.0 mi South 9.2 mph - N/A   Clear
1:53 AM 60.1 °F 54.0 °F 80% 29.87 in 10.0 mi South 8.1 mph - N/A   Clear
2:53 AM 59.0 °F 54.0 °F 83% 29.85 in 10.0 mi South 6.9 mph - N/A   Clear
3:53 AM 57.9 °F 54.0 °F 87% 29.83 in 10.0 mi SW 8.1 mph - N/A   Clear
4:53 AM 57.9 °F 54.0 °F 87% 29.81 in 9.0 mi SSW 3.5 mph - N/A   Clear
5:53 AM 57.9 °F 53.1 °F 84% 29.80 in 10.0 mi SSW 5.8 mph - N/A   Clear
6:53 AM 55.9 °F 53.1 °F 90% 29.78 in 9.0 mi Calm Calm - N/A   Clear
7:53 AM 55.0 °F 52.0 °F 89% 29.78 in 6.0 mi SSE 4.6 mph - N/A   Partly Cloudy
8:53 AM 57.9 °F 55.0 °F 90% 29.79 in 6.0 mi SSE 6.9 mph - N/A   Scattered Clouds
9:53 AM 63.0 °F 55.0 °F 75% 29.78 in 8.0 mi South 5.8 mph - N/A   Clear
10:53 AM 64.9 °F 55.9 °F 73% 29.79 in 10.0 mi South 8.1 mph - N/A   Partly Cloudy
11:53 AM 66.9 °F 57.0 °F 70% 29.75 in 10.0 mi South 6.9 mph - N/A   Clear
12:53 PM 69.1 °F 57.0 °F 65% 29.72 in 10.0 mi South 10.4 mph - N/A   Clear
1:53 PM 72.0 °F 57.9 °F 61% 29.68 in 10.0 mi South 11.5 mph - N/A   Clear
2:53 PM 73.0 °F 57.0 °F 57% 29.65 in 10.0 mi SSW 10.4 mph - N/A   Scattered Clouds
3:53 PM 73.0 °F 57.0 °F 57% 29.61 in 10.0 mi South 11.5 mph - N/A   Clear
4:53 PM 75.0 °F 57.0 °F 53% 29.58 in 10.0 mi South 11.5 mph - N/A   Clear
5:53 PM 75.0 °F 57.0 °F 53% 29.56 in 10.0 mi SSE 10.4 mph - N/A   Clear
6:53 PM 73.0 °F 55.0 °F 53% 29.57 in 10.0 mi South 10.4 mph - N/A   Clear
7:53 PM 71.1 °F 55.0 °F 57% 29.60 in 10.0 mi South 10.4 mph - N/A   Clear
8:53 PM 66.0 °F 57.0 °F 73% 29.62 in 10.0 mi SE 9.2 mph - N/A   Clear
9:53 PM 62.1 °F 57.0 °F 84% 29.65 in 10.0 mi SSE 6.9 mph - N/A   Clear
10:53 PM 62.1 °F 57.0 °F 84% 29.65 in 10.0 mi SE 4.6 mph - N/A   Clear
11:53 PM 62.1 °F 55.0 °F 78% 29.66 in 10.0 mi South 5.8 mph - N/A   Clear